| time (UTC) | temp F | wind direction | speed MPH | gust MPH | rain 1hr in | rain 24hr in | rain mn in | humidity % | barometer mb |
| 20260508033507 | 49 | 185 | 0.0 | 1.0 | 0.00 | 0.73 | 0.00 | 95 | 1002.1 |
| 20260508033006 | 49 | 185 | 0.0 | 1.0 | 0.00 | 0.73 | 0.00 | 95 | 1002.1 |
| 20260508032508 | 49 | 197 | 0.0 | 1.0 | 0.00 | 0.73 | 0.00 | 95 | 1002.1 |
| 20260508032004 | 49 | 206 | 0.0 | 3.0 | 0.00 | 0.73 | 0.00 | 95 | 1002.1 |
| 20260508031512 | 49 | 170 | 1.0 | 3.0 | 0.00 | 0.73 | 0.00 | 95 | 1002.3 |
| 20260508031005 | 49 | 213 | 1.0 | 3.0 | 0.00 | 0.73 | 0.00 | 95 | 1002.2 |
| 20260508030511 | 49 | 209 | 0.0 | 2.0 | 0.00 | 0.73 | 0.00 | 95 | 1002.2 |
| 20260508030005 | 49 | 161 | 0.0 | 2.0 | 0.00 | 0.73 | 0.00 | 95 | 1002.3 |
| 20260508025511 | 48 | 171 | 0.0 | 2.0 | 0.00 | 0.73 | 0.73 | 95 | 1002.4 |
| 20260508025002 | 49 | 192 | 0.0 | 4.0 | 0.00 | 0.73 | 0.73 | 95 | 1002.0 |
| 20260508024508 | 49 | 175 | 2.0 | 6.0 | 0.00 | 0.73 | 0.73 | 95 | 1002.1 |
| 20260508024003 | 49 | 200 | 3.0 | 6.0 | 0.00 | 0.73 | 0.73 | 95 | 1001.8 |
| 20260508023510 | 49 | 211 | 2.0 | 5.0 | 0.00 | 0.73 | 0.73 | 95 | 1001.9 |
| 20260508023004 | 49 | 195 | 2.0 | 5.0 | 0.00 | 0.73 | 0.73 | 95 | 1001.8 |
| 20260508022509 | 49 | 211 | 3.0 | 5.0 | 0.00 | 0.73 | 0.73 | 95 | 1001.9 |
| 20260508022005 | 49 | 230 | 2.0 | 4.0 | 0.00 | 0.73 | 0.73 | 95 | 1002.0 |
| 20260508021509 | 49 | 207 | 2.0 | 4.0 | 0.00 | 0.73 | 0.73 | 95 | 1001.8 |
| 20260508021005 | 49 | 218 | 2.0 | 4.0 | 0.00 | 0.73 | 0.73 | 95 | 1001.7 |
| 20260508020510 | 49 | 211 | 1.0 | 6.0 | 0.00 | 0.73 | 0.73 | 95 | 1002.0 |
| 20260508020005 | 49 | 220 | 3.0 | 6.0 | 0.00 | 0.73 | 0.73 | 95 | 1002.0 |
| 20260508015604 | 49 | 217 | 3.0 | 6.0 | 0.00 | 0.73 | 0.73 | 95 | 1002.0 |
| 20260508015004 | 49 | 191 | 1.0 | 6.0 | 0.00 | 0.73 | 0.73 | 95 | 1002.0 |
| 20260508014511 | 49 | 226 | 3.0 | 6.0 | 0.00 | 0.73 | 0.73 | 95 | 1002.1 |
| 20260508014007 | 49 | 170 | 3.0 | 6.0 | 0.00 | 0.73 | 0.73 | 95 | 1002.1 |
| 20260508013606 | 49 | 250 | 1.0 | 4.0 | 0.00 | 0.73 | 0.73 | 95 | 1002.0 |
| 20260508013006 | 48 | 163 | 2.0 | 4.0 | 0.00 | 0.73 | 0.73 | 95 | 1001.9 |
| 20260508012503 | 48 | 143 | 1.0 | 4.0 | 0.00 | 0.73 | 0.73 | 95 | 1001.8 |
| 20260508012007 | 48 | 167 | 1.0 | 4.0 | 0.00 | 0.73 | 0.73 | 95 | 1001.7 |
| 20260508011504 | 48 | 217 | 2.0 | 6.0 | 0.00 | 0.73 | 0.73 | 95 | 1002.0 |
| 20260508011007 | 48 | 147 | 1.0 | 6.0 | 0.00 | 0.73 | 0.73 | 95 | 1001.9 |
| 20260508010503 | 48 | 144 | 3.0 | 8.0 | 0.00 | 0.73 | 0.73 | 95 | 1002.0 |
| 20260508010019 | 48 | 152 | 2.0 | 8.0 | 0.00 | 0.73 | 0.73 | 94 | 1002.2 |
| 20260508005504 | 48 | 142 | 3.0 | 8.0 | 0.00 | 0.73 | 0.73 | 95 | 1002.5 |
| 20260508005004 | 48 | 192 | 4.0 | 8.0 | 0.00 | 0.73 | 0.73 | 94 | 1002.4 |
| 20260508004518 | 49 | 149 | 2.0 | 6.0 | 0.00 | 0.73 | 0.73 | 94 | 1002.3 |
| 20260508004005 | 49 | 165 | 2.0 | 6.0 | 0.00 | 0.73 | 0.73 | 94 | 1002.4 |
| 20260508003509 | 48 | 152 | 3.0 | 6.0 | 0.00 | 0.73 | 0.73 | 94 | 1002.3 |
| 20260508003007 | 48 | 206 | 2.0 | 4.0 | 0.00 | 0.73 | 0.73 | 94 | 1002.1 |
| 20260508002604 | 49 | 172 | 2.0 | 4.0 | 0.00 | 0.73 | 0.73 | 94 | 1002.1 |
| 20260508002007 | 49 | 187 | 0.0 | 5.0 | 0.00 | 0.73 | 0.73 | 94 | 1002.2 |
| 20260508001505 | 49 | 174 | 2.0 | 6.0 | 0.00 | 0.73 | 0.73 | 94 | 1002.3 |
| 20260508001008 | 49 | 201 | 2.0 | 6.0 | 0.00 | 0.73 | 0.73 | 94 | 1002.2 |
| 20260508000503 | 49 | 215 | 3.0 | 6.0 | 0.00 | 0.73 | 0.73 | 94 | 1002.5 |
| 20260508000008 | 49 | 163 | 3.0 | 6.0 | 0.00 | 0.73 | 0.73 | 94 | 1002.8 |
| 20260507235504 | 49 | 169 | 3.0 | 6.0 | 0.00 | 0.73 | 0.73 | 94 | 1002.7 |
| 20260507235113 | 49 | 149 | 2.0 | 6.0 | 0.00 | 0.73 | 0.73 | 94 | 1002.6 |
| 20260507234613 | 49 | 199 | 3.0 | 8.0 | 0.01 | 0.73 | 0.73 | 94 | 1002.3 |
| 20260507234006 | 49 | 175 | 3.0 | 8.0 | 0.01 | 0.73 | 0.73 | 94 | 1002.5 |
| 20260507233603 | 49 | 170 | 2.0 | 9.0 | 0.01 | 0.73 | 0.73 | 94 | 1002.6 |
| 20260507233007 | 49 | 153 | 5.0 | 9.0 | 0.01 | 0.73 | 0.73 | 94 | 1002.7 |
| 20260507232502 | 49 | 161 | 4.0 | 9.0 | 0.01 | 0.73 | 0.73 | 94 | 1002.6 |
| 20260507232008 | 49 | 144 | 4.0 | 9.0 | 0.01 | 0.73 | 0.73 | 94 | 1002.8 |
| 20260507231504 | 49 | 213 | 3.0 | 8.0 | 0.01 | 0.73 | 0.73 | 94 | 1002.8 |
| 20260507231008 | 49 | 168 | 4.0 | 10.0 | 0.01 | 0.73 | 0.73 | 94 | 1003.0 |
| 20260507230504 | 49 | 151 | 6.0 | 10.0 | 0.01 | 0.73 | 0.73 | 94 | 1003.0 |
| 20260507230008 | 49 | 192 | 4.0 | 6.0 | 0.01 | 0.73 | 0.73 | 94 | 1002.9 |
| 20260507225505 | 49 | 180 | 2.0 | 6.0 | 0.01 | 0.73 | 0.73 | 94 | 1002.6 |
| 20260507225013 | 49 | 157 | 2.0 | 8.0 | 0.01 | 0.73 | 0.73 | 94 | 1002.6 |
| 20260507224514 | 49 | 157 | 3.0 | 7.0 | 0.00 | 0.72 | 0.72 | 93 | 1003.0 |
| 20260507224005 | 49 | 165 | 3.0 | 7.0 | 0.00 | 0.72 | 0.72 | 93 | 1003.0 |
| 20260507223513 | 49 | 148 | 3.0 | 7.0 | 0.00 | 0.72 | 0.72 | 93 | 1003.0 |
| 20260507223007 | 49 | 173 | 3.0 | 9.0 | 0.00 | 0.72 | 0.72 | 93 | 1003.0 |
| 20260507222604 | 49 | 174 | 4.0 | 11.0 | 0.00 | 0.72 | 0.72 | 93 | 1002.7 |
| 20260507222009 | 49 | 154 | 5.0 | 14.0 | 0.00 | 0.72 | 0.72 | 93 | 1002.9 |
| 20260507221505 | 49 | 167 | 7.0 | 14.0 | 0.00 | 0.72 | 0.72 | 93 | 1003.0 |
| 20260507221009 | 50 | 189 | 7.0 | 12.0 | 0.00 | 0.72 | 0.72 | 92 | 1002.9 |
| 20260507220505 | 50 | 164 | 6.0 | 16.0 | 0.00 | 0.72 | 0.72 | 92 | 1003.1 |
| 20260507220010 | 50 | 155 | 11.0 | 16.0 | 0.00 | 0.72 | 0.72 | 92 | 1002.9 |
| 20260507215505 | 50 | 204 | 8.0 | 16.0 | 0.01 | 0.72 | 0.72 | 93 | 1002.8 |
| 20260507215010 | 50 | 146 | 8.0 | 16.0 | 0.01 | 0.72 | 0.72 | 93 | 1002.9 |
| 20260507214006 | 49 | 139 | 10.0 | 17.0 | 0.05 | 0.72 | 0.72 | 92 | 1002.7 |
| 20260507213504 | 49 | 118 | 8.0 | 23.0 | 0.07 | 0.72 | 0.72 | 92 | 1002.5 |
| 20260507213008 | 49 | 115 | 12.0 | 23.0 | 0.09 | 0.72 | 0.72 | 92 | 1002.4 |
| 20260507212503 | 49 | 126 | 11.0 | 27.0 | 0.12 | 0.72 | 0.72 | 92 | 1001.9 |
| 20260507212008 | 49 | 114 | 15.0 | 27.0 | 0.15 | 0.72 | 0.72 | 92 | 1001.6 |
| 20260507211503 | 49 | 183 | 11.0 | 21.0 | 0.17 | 0.72 | 0.72 | 92 | 1002.1 |
| 20260507211007 | 49 | 156 | 7.0 | 15.0 | 0.20 | 0.72 | 0.72 | 92 | 1002.4 |
| 20260507210005 | 49 | 119 | 9.0 | 18.0 | 0.26 | 0.72 | 0.72 | 92 | 1003.1 |
| 20260507205511 | 50 | 141 | 8.0 | 18.0 | 0.28 | 0.72 | 0.72 | 92 | 1003.2 |
| 20260507205106 | 50 | 138 | 10.0 | 19.0 | 0.31 | 0.72 | 0.72 | 92 | 1003.4 |
| 20260507204503 | 50 | 168 | 11.0 | 19.0 | 0.34 | 0.69 | 0.69 | 91 | 1003.5 |
| 20260507204007 | 50 | 133 | 8.0 | 18.0 | 0.34 | 0.67 | 0.67 | 92 | 1003.9 |
| 20260507203604 | 50 | 139 | 10.0 | 18.0 | 0.35 | 0.65 | 0.65 | 92 | 1003.7 |
| 20260507203007 | 50 | 145 | 8.0 | 16.0 | 0.38 | 0.63 | 0.63 | 92 | 1003.9 |
| 20260507202502 | 51 | 194 | 9.0 | 17.0 | 0.37 | 0.60 | 0.60 | 92 | 1004.3 |
| 20260507202007 | 51 | 175 | 7.0 | 17.0 | 0.35 | 0.56 | 0.56 | 92 | 1004.6 |
| 20260507201603 | 51 | 199 | 8.0 | 17.0 | 0.35 | 0.55 | 0.55 | 92 | 1004.6 |
| 20260507201007 | 51 | 206 | 5.0 | 14.0 | 0.32 | 0.52 | 0.52 | 92 | 1004.9 |
| 20260507200603 | 51 | 239 | 8.0 | 15.0 | 0.32 | 0.50 | 0.50 | 92 | 1005.0 |
| 20260507200007 | 51 | 159 | 9.0 | 15.0 | 0.28 | 0.46 | 0.46 | 92 | 1005.0 |
| 20260507195505 | 52 | 166 | 6.0 | 17.0 | 0.27 | 0.42 | 0.42 | 92 | 1004.5 |
| 20260507195111 | 51 | 143 | 7.0 | 19.0 | 0.26 | 0.39 | 0.39 | 92 | 1004.6 |
| 20260507194503 | 52 | 138 | 11.0 | 19.0 | 0.24 | 0.35 | 0.35 | 92 | 1004.7 |
| 20260507194008 | 52 | 150 | 8.0 | 20.0 | 0.22 | 0.32 | 0.32 | 92 | 1004.6 |
| 20260507193504 | 52 | 171 | 8.0 | 22.0 | 0.20 | 0.28 | 0.28 | 92 | 1004.6 |
| 20260507193009 | 52 | 126 | 12.0 | 22.0 | 0.17 | 0.25 | 0.25 | 92 | 1004.7 |
| 20260507192503 | 52 | 183 | 12.0 | 23.0 | 0.13 | 0.22 | 0.22 | 91 | 1004.8 |
| 20260507192009 | 52 | 112 | 14.0 | 23.0 | 0.13 | 0.21 | 0.21 | 91 | 1004.8 |
| 20260507191504 | 52 | 196 | 10.0 | 19.0 | 0.13 | 0.20 | 0.20 | 91 | 1005.1 |
| 20260507191006 | 52 | 180 | 8.0 | 18.0 | 0.13 | 0.20 | 0.20 | 92 | 1005.1 |
| 20260507190010 | 52 | 163 | 10.0 | 17.0 | 0.10 | 0.17 | 0.17 | 91 | 1005.4 |
| 20260507185602 | 52 | 147 | 8.0 | 17.0 | 0.09 | 0.15 | 0.15 | 92 | 1005.6 |
| 20260507185007 | 52 | 170 | 7.0 | 16.0 | 0.06 | 0.13 | 0.13 | 91 | 1005.8 |
| 20260507184603 | 52 | 171 | 8.0 | 16.0 | 0.06 | 0.12 | 0.12 | 92 | 1005.8 |
| 20260507184007 | 52 | 163 | 5.0 | 15.0 | 0.04 | 0.10 | 0.10 | 91 | 1005.8 |
| 20260507183502 | 52 | 149 | 8.0 | 19.0 | 0.02 | 0.09 | 0.09 | 91 | 1005.8 |
| 20260507183019 | 52 | 170 | 12.0 | 19.0 | 0.02 | 0.09 | 0.09 | 91 | 1005.7 |
| 20260507182504 | 52 | 165 | 11.0 | 21.0 | 0.02 | 0.09 | 0.09 | 91 | 1005.5 |
| 20260507182008 | 52 | 159 | 15.0 | 22.0 | 0.02 | 0.08 | 0.08 | 90 | 1005.5 |
| 20260507181511 | 52 | 132 | 10.0 | 23.0 | 0.01 | 0.07 | 0.07 | 90 | 1005.4 |
| 20260507181005 | 52 | 142 | 15.0 | 23.0 | 0.01 | 0.07 | 0.07 | 90 | 1005.2 |
| 20260507180509 | 53 | 133 | 14.0 | 23.0 | 0.00 | 0.06 | 0.06 | 90 | 1005.2 |
| 20260507180004 | 53 | 216 | 15.0 | 24.0 | 0.00 | 0.06 | 0.06 | 89 | 1005.2 |
| 20260507175511 | 53 | 121 | 12.0 | 24.0 | 0.00 | 0.06 | 0.06 | 89 | 1005.4 |
| 20260507175003 | 53 | 149 | 15.0 | 27.0 | 0.00 | 0.06 | 0.06 | 88 | 1005.4 |
| 20260507174511 | 54 | 123 | 16.0 | 27.0 | 0.00 | 0.06 | 0.06 | 88 | 1005.5 |
| 20260507174103 | 54 | 136 | 15.0 | 25.0 | 0.00 | 0.06 | 0.06 | 87 | 1005.6 |
| 20260507173505 | 54 | 149 | 14.0 | 25.0 | 0.00 | 0.06 | 0.06 | 86 | 1005.7 |
| 20260507172507 | 55 | 143 | 11.0 | 21.0 | 0.00 | 0.06 | 0.06 | 86 | 1006.1 |
| 20260507172103 | 55 | 159 | 14.0 | 21.0 | 0.00 | 0.06 | 0.06 | 86 | 1005.9 |
| 20260507171506 | 55 | 160 | 11.0 | 22.0 | 0.00 | 0.06 | 0.06 | 86 | 1005.8 |
| 20260507171012 | 55 | 148 | 12.0 | 25.0 | 0.00 | 0.06 | 0.06 | 87 | 1005.9 |
| 20260507170506 | 54 | 157 | 13.0 | 25.0 | 0.00 | 0.06 | 0.06 | 87 | 1006.1 |
| 20260507170009 | 54 | 164 | 13.0 | 23.0 | 0.00 | 0.06 | 0.06 | 87 | 1006.2 |
| 20260507165504 | 54 | 141 | 13.0 | 24.0 | 0.00 | 0.06 | 0.06 | 87 | 1006.5 |
| 20260507165008 | 54 | 132 | 13.0 | 25.0 | 0.00 | 0.06 | 0.06 | 87 | 1006.8 |
| 20260507164504 | 54 | 147 | 12.0 | 25.0 | 0.00 | 0.06 | 0.06 | 87 | 1006.7 |
| 20260507164009 | 55 | 156 | 13.0 | 23.0 | 0.00 | 0.06 | 0.06 | 86 | 1006.9 |
| 20260507163505 | 54 | 165 | 12.0 | 25.0 | 0.00 | 0.06 | 0.06 | 87 | 1007.0 |
| 20260507163011 | 54 | 128 | 13.0 | 27.0 | 0.00 | 0.06 | 0.06 | 87 | 1007.0 |
| 20260507162506 | 55 | 171 | 15.0 | 27.0 | 0.00 | 0.06 | 0.06 | 86 | 1007.4 |
| 20260507162008 | 55 | 149 | 11.0 | 24.0 | 0.00 | 0.06 | 0.06 | 86 | 1007.6 |
| 20260507161503 | 55 | 152 | 10.0 | 24.0 | 0.00 | 0.06 | 0.06 | 87 | 1007.5 |
| 20260507161006 | 55 | 152 | 12.0 | 22.0 | 0.00 | 0.06 | 0.06 | 86 | 1007.8 |
| 20260507160018 | 55 | 205 | 11.0 | 22.0 | 0.00 | 0.06 | 0.06 | 87 | 1008.1 |
| 20260507155008 | 55 | 148 | 12.0 | 23.0 | 0.00 | 0.06 | 0.06 | 89 | 1008.2 |
| 20260507154505 | 55 | 140 | 14.0 | 23.0 | 0.00 | 0.06 | 0.06 | 88 | 1008.2 |
| 20260507154010 | 55 | 169 | 13.0 | 28.0 | 0.00 | 0.06 | 0.06 | 88 | 1008.3 |
| 20260507153606 | 55 | 166 | 15.0 | 28.0 | 0.00 | 0.06 | 0.06 | 88 | 1008.3 |
| 20260507153007 | 55 | 187 | 10.0 | 23.0 | 0.00 | 0.06 | 0.06 | 88 | 1008.5 |
| 20260507152503 | 55 | 142 | 10.0 | 26.0 | 0.00 | 0.06 | 0.06 | 88 | 1008.9 |
| 20260507152008 | 55 | 170 | 13.0 | 26.0 | 0.00 | 0.06 | 0.06 | 88 | 1008.8 |
| 20260507151505 | 55 | 136 | 12.0 | 18.0 | 0.00 | 0.06 | 0.06 | 88 | 1009.3 |
| 20260507151013 | 55 | 164 | 10.0 | 23.0 | 0.00 | 0.06 | 0.06 | 89 | 1009.3 |
| 20260507150507 | 55 | 102 | 9.0 | 23.0 | 0.00 | 0.06 | 0.06 | 89 | 1009.1 |
| 20260507150011 | 55 | 154 | 11.0 | 18.0 | 0.00 | 0.06 | 0.06 | 89 | 1009.2 |
| 20260507145604 | 55 | 160 | 9.0 | 18.0 | 0.00 | 0.06 | 0.06 | 89 | 1009.2 |
| 20260507145008 | 55 | 199 | 7.0 | 14.0 | 0.00 | 0.06 | 0.06 | 89 | 1009.5 |
| 20260507144504 | 55 | 172 | 9.0 | 20.0 | 0.00 | 0.06 | 0.06 | 89 | 1009.4 |
| 20260507144009 | 54 | 149 | 12.0 | 20.0 | 0.00 | 0.06 | 0.06 | 89 | 1009.6 |
| 20260507143503 | 54 | 144 | 10.0 | 19.0 | 0.00 | 0.06 | 0.06 | 90 | 1009.9 |
| 20260507143012 | 54 | 197 | 12.0 | 19.0 | 0.00 | 0.06 | 0.06 | 90 | 1010.0 |
| 20260507142605 | 54 | 120 | 8.0 | 16.0 | 0.00 | 0.06 | 0.06 | 90 | 1010.0 |
| 20260507142010 | 54 | 148 | 11.0 | 20.0 | 0.00 | 0.06 | 0.06 | 89 | 1010.4 |
| 20260507141515 | 54 | 157 | 11.0 | 20.0 | 0.00 | 0.06 | 0.06 | 88 | 1010.6 |
| 20260507141010 | 54 | 177 | 11.0 | 19.0 | 0.00 | 0.06 | 0.06 | 88 | 1010.6 |
| 20260507140505 | 54 | 173 | 10.0 | 19.0 | 0.00 | 0.06 | 0.06 | 88 | 1010.6 |
| 20260507140109 | 54 | 206 | 11.0 | 20.0 | 0.00 | 0.06 | 0.06 | 88 | 1010.4 |
| 20260507135506 | 54 | 142 | 12.0 | 20.0 | 0.00 | 0.06 | 0.06 | 87 | 1010.5 |
| 20260507135009 | 54 | 140 | 11.0 | 20.0 | 0.00 | 0.06 | 0.06 | 87 | 1010.3 |
| 20260507134505 | 55 | 201 | 10.0 | 22.0 | 0.00 | 0.06 | 0.06 | 87 | 1010.4 |
| 20260507134010 | 55 | 173 | 10.0 | 23.0 | 0.00 | 0.06 | 0.06 | 87 | 1010.4 |
| 20260507133006 | 55 | 162 | 11.0 | 22.0 | 0.00 | 0.06 | 0.06 | 87 | 1010.4 |
| 20260507132006 | 54 | 145 | 15.0 | 27.0 | 0.00 | 0.06 | 0.06 | 88 | 1009.9 |
| 20260507131604 | 54 | 149 | 11.0 | 25.0 | 0.00 | 0.06 | 0.06 | 88 | 1010.2 |
| 20260507131008 | 54 | 152 | 11.0 | 25.0 | 0.00 | 0.06 | 0.06 | 88 | 1010.2 |
| 20260507130502 | 54 | 138 | 11.0 | 28.0 | 0.00 | 0.06 | 0.06 | 89 | 1010.5 |
| 20260507130020 | 53 | 125 | 13.0 | 28.0 | 0.00 | 0.06 | 0.06 | 89 | 1010.5 |
| 20260507125510 | 53 | 121 | 11.0 | 25.0 | 0.00 | 0.06 | 0.06 | 90 | 1010.1 |
| 20260507125005 | 53 | 165 | 9.0 | 23.0 | 0.00 | 0.06 | 0.06 | 91 | 1010.0 |
| 20260507124511 | 52 | 118 | 10.0 | 23.0 | 0.00 | 0.06 | 0.06 | 91 | 1009.9 |
| 20260507124005 | 52 | 157 | 10.0 | 23.0 | 0.00 | 0.06 | 0.06 | 91 | 1010.2 |
| 20260507123504 | 52 | 225 | 11.0 | 20.0 | 0.00 | 0.06 | 0.06 | 91 | 1010.6 |
| 20260507123008 | 52 | 161 | 8.0 | 21.0 | 0.00 | 0.06 | 0.06 | 91 | 1010.6 |
| 20260507122504 | 52 | 131 | 10.0 | 21.0 | 0.00 | 0.06 | 0.06 | 91 | 1010.8 |
| 20260507122008 | 52 | 138 | 8.0 | 25.0 | 0.00 | 0.06 | 0.06 | 91 | 1011.2 |
| 20260507121509 | 53 | 186 | 11.0 | 25.0 | 0.00 | 0.06 | 0.06 | 91 | 1011.4 |
| 20260507121006 | 53 | 156 | 11.0 | 22.0 | 0.00 | 0.06 | 0.06 | 91 | 1011.6 |
| 20260507120513 | 53 | 157 | 11.0 | 23.0 | 0.00 | 0.06 | 0.06 | 90 | 1011.6 |
| 20260507120006 | 53 | 128 | 10.0 | 23.0 | 0.00 | 0.06 | 0.06 | 91 | 1011.9 |
| 20260507115506 | 53 | 190 | 9.0 | 20.0 | 0.00 | 0.06 | 0.06 | 91 | 1012.2 |
| 20260507115008 | 53 | 143 | 8.0 | 18.0 | 0.00 | 0.06 | 0.06 | 91 | 1012.3 |
| 20260507114614 | 53 | 173 | 9.0 | 23.0 | 0.00 | 0.06 | 0.06 | 91 | 1012.3 |
| 20260507114005 | 53 | 175 | 10.0 | 23.0 | 0.00 | 0.06 | 0.06 | 91 | 1012.2 |
| 20260507113508 | 53 | 97 | 12.0 | 20.0 | 0.00 | 0.06 | 0.06 | 91 | 1012.0 |
| 20260507112507 | 53 | 168 | 12.0 | 22.0 | 0.00 | 0.06 | 0.06 | 91 | 1012.3 |
| 20260507112105 | 53 | 182 | 12.0 | 21.0 | 0.00 | 0.06 | 0.06 | 92 | 1012.3 |
| 20260507111507 | 52 | 143 | 12.0 | 21.0 | 0.00 | 0.06 | 0.06 | 92 | 1012.0 |
| 20260507111103 | 52 | 131 | 11.0 | 22.0 | 0.00 | 0.06 | 0.06 | 92 | 1011.6 |
| 20260507110505 | 52 | 143 | 10.0 | 22.0 | 0.00 | 0.06 | 0.06 | 92 | 1011.8 |
| 20260507110024 | 52 | 164 | 7.0 | 20.0 | 0.00 | 0.06 | 0.06 | 92 | 1012.1 |
| 20260507105505 | 52 | 137 | 7.0 | 18.0 | 0.00 | 0.06 | 0.06 | 92 | 1012.2 |
| 20260507105008 | 52 | 165 | 6.0 | 16.0 | 0.00 | 0.06 | 0.06 | 92 | 1012.0 |
| 20260507104606 | 52 | 152 | 9.0 | 19.0 | 0.00 | 0.06 | 0.06 | 92 | 1012.3 |
| 20260507104006 | 51 | 145 | 9.0 | 19.0 | 0.00 | 0.06 | 0.06 | 92 | 1013.0 |
| 20260507103507 | 52 | 251 | 7.0 | 17.0 | 0.00 | 0.06 | 0.06 | 92 | 1013.2 |
| 20260507103009 | 52 | 157 | 8.0 | 17.0 | 0.00 | 0.06 | 0.06 | 92 | 1013.4 |
| 20260507102505 | 52 | 203 | 8.0 | 17.0 | 0.00 | 0.06 | 0.06 | 92 | 1013.0 |
| 20260507102008 | 51 | 155 | 8.0 | 15.0 | 0.00 | 0.06 | 0.06 | 93 | 1013.0 |
| 20260507101508 | 51 | 200 | 6.0 | 15.0 | 0.01 | 0.06 | 0.06 | 93 | 1012.8 |
| 20260507100505 | 51 | 193 | 5.0 | 10.0 | 0.01 | 0.06 | 0.06 | 93 | 1012.9 |
| 20260507100013 | 51 | 209 | 4.0 | 11.0 | 0.01 | 0.06 | 0.06 | 93 | 1013.3 |
| 20260507095605 | 51 | 182 | 3.0 | 11.0 | 0.01 | 0.06 | 0.06 | 93 | 1013.2 |
| 20260507095009 | 51 | 132 | 4.0 | 13.0 | 0.01 | 0.06 | 0.06 | 93 | 1013.1 |
| 20260507094605 | 51 | 220 | 5.0 | 13.0 | 0.02 | 0.06 | 0.06 | 93 | 1012.8 |
| 20260507094006 | 51 | 147 | 7.0 | 15.0 | 0.02 | 0.06 | 0.06 | 93 | 1013.1 |
| 20260507093513 | 51 | 210 | 8.0 | 21.0 | 0.02 | 0.06 | 0.06 | 93 | 1013.4 |
| 20260507093022 | 51 | 150 | 9.0 | 21.0 | 0.02 | 0.06 | 0.06 | 93 | 1012.9 |
| 20260507092506 | 51 | 135 | 8.0 | 16.0 | 0.02 | 0.06 | 0.06 | 93 | 1012.9 |
| 20260507092010 | 51 | 125 | 8.0 | 16.0 | 0.03 | 0.06 | 0.06 | 92 | 1012.9 |
| 20260507091008 | 51 | 139 | 6.0 | 14.0 | 0.03 | 0.06 | 0.06 | 92 | 1013.6 |
| 20260507090511 | 51 | 223 | 6.0 | 18.0 | 0.03 | 0.06 | 0.06 | 92 | 1013.5 |
| 20260507090007 | 52 | 154 | 8.0 | 18.0 | 0.04 | 0.06 | 0.06 | 92 | 1013.2 |
| 20260507085510 | 52 | 166 | 5.0 | 20.0 | 0.05 | 0.06 | 0.06 | 92 | 1013.3 |
| 20260507085006 | 52 | 186 | 7.0 | 20.0 | 0.04 | 0.05 | 0.05 | 92 | 1013.4 |
| 20260507084518 | 52 | 168 | 8.0 | 17.0 | 0.04 | 0.05 | 0.05 | 92 | 1013.4 |
| 20260507084007 | 52 | 137 | 7.0 | 17.0 | 0.05 | 0.05 | 0.05 | 92 | 1013.3 |
| 20260507083605 | 52 | 147 | 9.0 | 16.0 | 0.04 | 0.04 | 0.04 | 92 | 1013.4 |
| 20260507083009 | 52 | 135 | 8.0 | 18.0 | 0.04 | 0.04 | 0.04 | 92 | 1013.1 |
| 20260507082506 | 52 | 191 | 7.0 | 19.0 | 0.04 | 0.04 | 0.04 | 92 | 1013.1 |
| 20260507082007 | 52 | 195 | 8.0 | 19.0 | 0.02 | 0.02 | 0.02 | 92 | 1013.3 |
| 20260507081511 | 52 | 156 | 8.0 | 16.0 | 0.02 | 0.02 | 0.02 | 92 | 1013.3 |
| 20260507081009 | 52 | 145 | 8.0 | 16.0 | 0.02 | 0.02 | 0.02 | 92 | 1013.4 |
| 20260507080007 | 51 | 128 | 6.0 | 14.0 | 0.02 | 0.02 | 0.02 | 92 | 1013.9 |
| 20260507075603 | 51 | 124 | 5.0 | 14.0 | 0.02 | 0.02 | 0.02 | 92 | 1014.1 |
| 20260507075009 | 51 | 175 | 5.0 | 11.0 | 0.01 | 0.01 | 0.01 | 91 | 1014.1 |
| 20260507074615 | 51 | 141 | 5.0 | 13.0 | 0.01 | 0.01 | 0.01 | 91 | 1014.1 |
| 20260507074007 | 51 | 169 | 5.0 | 14.0 | 0.00 | 0.00 | 0.00 | 91 | 1014.2 |
| 20260507073503 | 51 | 156 | 7.0 | 14.0 | 0.00 | 0.00 | 0.00 | 91 | 1014.2 |
| 20260507073008 | 51 | 123 | 7.0 | 13.0 | 0.00 | 0.00 | 0.00 | 91 | 1014.3 |
| 20260507072009 | 52 | 145 | 4.0 | 11.0 | 0.00 | 0.00 | 0.00 | 91 | 1014.3 |
| 20260507071606 | 52 | 136 | 5.0 | 12.0 | 0.00 | 0.00 | 0.00 | 91 | 1014.2 |
| 20260507071008 | 52 | 202 | 7.0 | 12.0 | 0.00 | 0.00 | 0.00 | 92 | 1014.1 |
| 20260507070511 | 52 | 172 | 4.0 | 10.0 | 0.00 | 0.00 | 0.00 | 92 | 1014.3 |
| 20260507070009 | 52 | 136 | 1.0 | 10.0 | 0.00 | 0.00 | 0.00 | 92 | 1014.5 |
| 20260507065510 | 52 | 219 | 3.0 | 11.0 | 0.00 | 0.00 | 0.00 | 92 | 1014.8 |
| 20260507065004 | 52 | 138 | 6.0 | 11.0 | 0.00 | 0.00 | 0.00 | 92 | 1014.6 |
| 20260507064509 | 52 | 209 | 4.0 | 12.0 | 0.00 | 0.00 | 0.00 | 92 | 1014.7 |
| 20260507064105 | 52 | 145 | 5.0 | 12.0 | 0.00 | 0.00 | 0.00 | 92 | 1014.8 |
| 20260507063508 | 52 | 173 | 3.0 | 8.0 | 0.00 | 0.00 | 0.00 | 91 | 1014.9 |
| 20260507063018 | 52 | 186 | 3.0 | 8.0 | 0.00 | 0.00 | 0.00 | 91 | 1015.0 |
| 20260507062508 | 52 | 175 | 2.0 | 6.0 | 0.00 | 0.00 | 0.00 | 92 | 1015.0 |
| 20260507062003 | 52 | 236 | 2.0 | 8.0 | 0.00 | 0.00 | 0.00 | 91 | 1015.1 |
| 20260507061508 | 52 | 223 | 4.0 | 8.0 | 0.00 | 0.00 | 0.00 | 91 | 1015.2 |
| 20260507060507 | 52 | 268 | 5.0 | 9.0 | 0.00 | 0.00 | 0.00 | 91 | 1015.2 |
| 20260507055507 | 52 | 171 | 2.0 | 8.0 | 0.00 | 0.00 | 0.00 | 91 | 1015.2 |
| 20260507055104 | 52 | 199 | 5.0 | 9.0 | 0.00 | 0.00 | 0.00 | 91 | 1015.2 |
| 20260507054508 | 52 | 174 | 4.0 | 9.0 | 0.00 | 0.00 | 0.00 | 92 | 1015.3 |
| 20260507053508 | 52 | 143 | 1.0 | 8.0 | 0.00 | 0.00 | 0.00 | 92 | 1015.5 |
| 20260507053007 | 52 | 192 | 4.0 | 8.0 | 0.00 | 0.00 | 0.00 | 92 | 1015.5 |
| 20260507052509 | 52 | 180 | 4.0 | 8.0 | 0.00 | 0.00 | 0.00 | 92 | 1015.6 |
| 20260507052011 | 52 | 235 | 4.0 | 9.0 | 0.00 | 0.00 | 0.00 | 92 | 1015.7 |
| 20260507051508 | 52 | 175 | 4.0 | 9.0 | 0.00 | 0.00 | 0.00 | 92 | 1015.9 |
| 20260507051010 | 52 | 194 | 5.0 | 10.0 | 0.00 | 0.00 | 0.00 | 92 | 1016.0 |
| 20260507050506 | 52 | 160 | 4.0 | 10.0 | 0.00 | 0.00 | 0.00 | 92 | 1016.1 |
| 20260507050011 | 52 | 248 | 3.0 | 10.0 | 0.00 | 0.00 | 0.00 | 92 | 1016.2 |
| 20260507045542 | 52 | 178 | 4.0 | 10.0 | 0.00 | 0.00 | 0.00 | 92 | 1016.2 |
| 20260507045007 | 52 | 211 | 3.0 | 8.0 | 0.00 | 0.00 | 0.00 | 92 | 1016.4 |
| 20260507044514 | 52 | 206 | 5.0 | 8.0 | 0.00 | 0.00 | 0.00 | 92 | 1016.4 |
| 20260507044006 | 52 | 183 | 4.0 | 9.0 | 0.00 | 0.00 | 0.00 | 92 | 1016.5 |
| 20260507043510 | 52 | 147 | 4.0 | 9.0 | 0.00 | 0.00 | 0.00 | 92 | 1016.6 |
| 20260507043005 | 52 | 196 | 4.0 | 10.0 | 0.00 | 0.00 | 0.00 | 91 | 1016.8 |
| 20260507042511 | 52 | 220 | 4.0 | 9.0 | 0.00 | 0.00 | 0.00 | 91 | 1016.7 |
| 20260507042003 | 52 | 180 | 4.0 | 11.0 | 0.00 | 0.00 | 0.00 | 91 | 1016.8 |
| 20260507041508 | 52 | 146 | 4.0 | 11.0 | 0.00 | 0.00 | 0.00 | 91 | 1016.8 |
| 20260507041104 | 52 | 117 | 4.0 | 10.0 | 0.00 | 0.00 | 0.00 | 91 | 1017.0 |
| 20260507040507 | 52 | 162 | 6.0 | 12.0 | 0.00 | 0.00 | 0.00 | 91 | 1017.1 |
| 20260507040011 | 53 | 154 | 5.0 | 11.0 | 0.00 | 0.00 | 0.00 | 91 | 1017.2 |
| 20260507035610 | 53 | 223 | 4.0 | 11.0 | 0.00 | 0.00 | 0.00 | 91 | 1017.3 |
| 20260507035005 | 53 | 236 | 6.0 | 12.0 | 0.00 | 0.00 | 0.00 | 91 | 1017.4 |
| 20260507034525 | 53 | 161 | 7.0 | 12.0 | 0.00 | 0.00 | 0.00 | 91 | 1017.5 |
| 20260507034007 | 53 | 204 | 5.0 | 11.0 | 0.00 | 0.00 | 0.00 | 91 | 1017.5 |